Time,TemperatureF,DewpointF,PressureIn,WindDirection,WindDirectionDegrees,WindSpeedMPH,WindSpeedGustMPH,Humidity,HourlyPrecipIn,Conditions,Clouds,dailyrainin,SolarRadiationWatts/m^2,SoftwareType,DateUTC
2013-02-06 00:11:00,57.0,35.0,-100.00,SSW,210,4.0,6.0,44,0.00,,,0.00,0.000000,,2013-02-06 08:11:00,
2013-02-06 00:21:00,57.0,35.0,-100.00,SSW,210,4.0,6.0,44,0.00,,,0.00,0.000000,,2013-02-06 08:21:00,
2013-02-06 00:31:00,57.0,35.0,-100.00,SSW,210,4.0,6.0,44,0.00,,,0.00,0.000000,,2013-02-06 08:31:00,
2013-02-06 00:41:00,57.0,35.0,-100.00,SSW,210,4.0,6.0,44,0.00,,,0.00,0.000000,,2013-02-06 08:41:00,
2013-02-06 01:11:00,56.0,39.0,-100.00,SSE,154,3.0,5.0,52,0.00,,,0.00,0.000000,,2013-02-06 09:11:00,
2013-02-06 01:21:00,56.0,39.0,-100.00,SSE,154,3.0,5.0,52,0.00,,,0.00,0.000000,,2013-02-06 09:21:00,
2013-02-06 01:31:00,56.0,39.0,-100.00,SSE,154,3.0,5.0,52,0.00,,,0.00,0.000000,,2013-02-06 09:31:00,
2013-02-06 01:41:00,56.0,39.0,-100.00,SSE,154,3.0,5.0,52,0.00,,,0.00,0.000000,,2013-02-06 09:41:00,
2013-02-06 02:11:00,56.0,38.0,-100.00,SSE,158,4.0,5.0,51,0.00,,,-99.99,0.000000,,2013-02-06 10:11:00,
2013-02-06 02:21:00,56.0,38.0,-100.00,SSE,158,4.0,5.0,51,0.00,,,-99.99,0.000000,,2013-02-06 10:21:00,
2013-02-06 02:31:00,56.0,38.0,-100.00,SSE,158,4.0,5.0,51,0.00,,,-99.99,0.000000,,2013-02-06 10:31:00,
2013-02-06 02:41:00,56.0,38.0,-100.00,SSE,158,4.0,5.0,51,0.00,,,-99.99,0.000000,,2013-02-06 10:41:00,
2013-02-06 03:11:00,57.0,39.0,-100.00,South,179,5.0,7.0,51,0.00,,,0.00,0.000000,,2013-02-06 11:11:00,
2013-02-06 03:22:00,57.0,39.0,-100.00,South,179,5.0,7.0,51,0.00,,,0.00,0.000000,,2013-02-06 11:22:00,
2013-02-06 03:32:00,57.0,39.0,-100.00,South,179,5.0,7.0,51,0.00,,,0.00,0.000000,,2013-02-06 11:32:00,
2013-02-06 03:42:00,57.0,39.0,-100.00,South,179,5.0,7.0,51,0.00,,,0.00,0.000000,,2013-02-06 11:42:00,
2013-02-06 04:12:00,56.0,41.0,-100.00,SSE,152,5.0,8.0,56,0.00,,,0.00,0.000000,,2013-02-06 12:12:00,
2013-02-06 04:22:00,56.0,41.0,-100.00,SSE,152,5.0,8.0,56,0.00,,,0.00,0.000000,,2013-02-06 12:22:00,
2013-02-06 04:32:00,56.0,41.0,-100.00,SSE,152,5.0,8.0,56,0.00,,,0.00,0.000000,,2013-02-06 12:32:00,
2013-02-06 04:42:00,56.0,41.0,-100.00,SSE,152,5.0,8.0,56,0.00,,,0.00,0.000000,,2013-02-06 12:42:00,
2013-02-06 05:11:00,56.0,41.0,-100.00,South,172,6.0,8.0,58,0.00,,,0.00,0.000000,,2013-02-06 13:11:00,
2013-02-06 05:21:00,56.0,41.0,-100.00,South,172,6.0,8.0,58,0.00,,,0.00,0.000000,,2013-02-06 13:21:00,
2013-02-06 05:31:00,56.0,41.0,-100.00,South,172,6.0,8.0,58,0.00,,,0.00,0.000000,,2013-02-06 13:31:00,
2013-02-06 05:42:00,56.0,41.0,-100.00,South,172,6.0,8.0,58,0.00,,,0.00,0.000000,,2013-02-06 13:42:00,
2013-02-06 06:11:00,56.0,40.0,-100.00,SSW,200,4.0,9.0,54,0.00,,,0.00,0.000000,,2013-02-06 14:11:00,
2013-02-06 06:21:00,56.0,40.0,-100.00,SSW,200,4.0,9.0,54,0.00,,,0.00,0.000000,,2013-02-06 14:21:00,
2013-02-06 06:31:00,56.0,40.0,-100.00,SSW,200,4.0,9.0,54,0.00,,,0.00,0.000000,,2013-02-06 14:31:00,
2013-02-06 06:41:00,56.0,40.0,-100.00,SSW,200,4.0,9.0,54,0.00,,,0.00,0.000000,,2013-02-06 14:41:00,
2013-02-06 07:11:00,51.0,39.0,-100.00,SW,215,4.0,5.0,64,0.00,,,0.00,3.000000,,2013-02-06 15:11:00,
2013-02-06 07:21:00,51.0,39.0,-100.00,SW,215,4.0,5.0,64,0.00,,,0.00,3.000000,,2013-02-06 15:21:00,
2013-02-06 07:31:00,51.0,39.0,-100.00,SW,215,4.0,5.0,64,0.00,,,0.00,3.000000,,2013-02-06 15:31:00,
2013-02-06 07:41:00,51.0,39.0,-100.00,SW,215,4.0,5.0,64,0.00,,,0.00,3.000000,,2013-02-06 15:41:00,
2013-02-06 08:11:00,60.0,41.0,-100.00,SSW,207,5.0,8.0,49,0.00,,,0.00,161.000000,,2013-02-06 16:11:00,
2013-02-06 08:21:00,60.0,41.0,-100.00,SSW,207,5.0,8.0,49,0.00,,,0.00,161.000000,,2013-02-06 16:21:00,
2013-02-06 08:32:00,60.0,41.0,-100.00,SSW,207,5.0,8.0,49,0.00,,,0.00,161.000000,,2013-02-06 16:32:00,
2013-02-06 08:41:00,60.0,41.0,-100.00,SSW,207,5.0,8.0,49,0.00,,,0.00,161.000000,,2013-02-06 16:41:00,
2013-02-06 09:11:00,66.0,42.0,-100.00,SSW,206,5.0,7.0,41,0.00,,,0.00,387.000000,,2013-02-06 17:11:00,
2013-02-06 09:21:00,66.0,42.0,-100.00,SSW,206,5.0,7.0,41,0.00,,,0.00,387.000000,,2013-02-06 17:21:00,
2013-02-06 09:32:00,66.0,42.0,-100.00,SSW,206,5.0,7.0,41,0.00,,,0.00,387.000000,,2013-02-06 17:32:00,
2013-02-06 09:41:00,66.0,42.0,-100.00,SSW,206,5.0,7.0,41,0.00,,,0.00,387.000000,,2013-02-06 17:41:00,
2013-02-06 10:11:00,69.0,39.0,-100.00,North,354,4.0,8.0,33,0.00,,,0.00,575.000000,,2013-02-06 18:11:00,
2013-02-06 10:22:00,69.0,39.0,-100.00,North,354,4.0,8.0,33,0.00,,,0.00,575.000000,,2013-02-06 18:22:00,
2013-02-06 10:32:00,69.0,39.0,-100.00,North,354,4.0,8.0,33,0.00,,,0.00,575.000000,,2013-02-06 18:32:00,
2013-02-06 10:41:00,69.0,39.0,-100.00,North,354,4.0,8.0,33,0.00,,,0.00,575.000000,,2013-02-06 18:41:00,
2013-02-06 11:11:00,70.0,40.0,-100.00,NNW,330,9.0,13.0,33,0.00,,,0.00,715.000000,,2013-02-06 19:11:00,
2013-02-06 11:21:00,70.0,40.0,-100.00,NNW,330,9.0,13.0,33,0.00,,,0.00,715.000000,,2013-02-06 19:21:00,
2013-02-06 11:31:00,70.0,40.0,-100.00,NNW,330,9.0,13.0,33,0.00,,,0.00,715.000000,,2013-02-06 19:31:00,
2013-02-06 11:41:00,70.0,40.0,-100.00,NNW,330,9.0,13.0,33,0.00,,,0.00,715.000000,,2013-02-06 19:41:00,
2013-02-06 12:11:00,73.0,38.0,-100.00,NNE,31,5.0,11.0,28,0.00,,,0.00,791.000000,,2013-02-06 20:11:00,
2013-02-06 12:21:00,73.0,38.0,-100.00,NNE,31,5.0,11.0,28,0.00,,,0.00,791.000000,,2013-02-06 20:21:00,
2013-02-06 12:31:00,73.0,38.0,-100.00,NNE,31,5.0,11.0,28,0.00,,,0.00,791.000000,,2013-02-06 20:31:00,
2013-02-06 12:41:00,73.0,38.0,-100.00,NNE,31,5.0,11.0,28,0.00,,,0.00,791.000000,,2013-02-06 20:41:00,
2013-02-06 13:11:00,74.0,36.0,-100.00,West,261,4.0,9.0,25,0.00,,,0.00,798.000000,,2013-02-06 21:11:00,
2013-02-06 13:21:00,74.0,36.0,-100.00,West,261,4.0,9.0,25,0.00,,,0.00,798.000000,,2013-02-06 21:21:00,
2013-02-06 13:31:00,74.0,36.0,-100.00,West,261,4.0,9.0,25,0.00,,,0.00,798.000000,,2013-02-06 21:31:00,
2013-02-06 13:41:00,74.0,36.0,-100.00,West,261,4.0,9.0,25,0.00,,,0.00,798.000000,,2013-02-06 21:41:00,
2013-02-06 14:11:00,76.0,31.0,-100.00,SW,217,4.0,9.0,19,0.00,,,0.00,720.000000,,2013-02-06 22:11:00,
2013-02-06 14:21:00,76.0,31.0,-100.00,SW,217,4.0,9.0,19,0.00,,,0.00,720.000000,,2013-02-06 22:21:00,
2013-02-06 14:31:00,76.0,31.0,-100.00,SW,217,4.0,9.0,19,0.00,,,0.00,720.000000,,2013-02-06 22:31:00,
2013-02-06 14:41:00,76.0,31.0,-100.00,SW,217,4.0,9.0,19,0.00,,,0.00,720.000000,,2013-02-06 22:41:00,
2013-02-06 15:11:00,76.0,31.0,-100.00,NW,311,8.0,14.0,19,0.00,,,0.00,576.000000,,2013-02-06 23:11:00,
2013-02-06 15:21:00,76.0,31.0,-100.00,NW,311,8.0,14.0,19,0.00,,,0.00,576.000000,,2013-02-06 23:21:00,
2013-02-06 15:31:00,76.0,31.0,-100.00,NW,311,8.0,14.0,19,0.00,,,0.00,576.000000,,2013-02-06 23:31:00,
2013-02-06 15:41:00,76.0,31.0,-100.00,NW,311,8.0,14.0,19,0.00,,,0.00,576.000000,,2013-02-06 23:41:00,
2013-02-06 16:11:00,75.0,34.0,-100.00,North,350,7.0,13.0,22,0.00,,,0.00,376.000000,,2013-02-07 00:11:00,
2013-02-06 16:21:00,75.0,34.0,-100.00,North,350,7.0,13.0,22,0.00,,,0.00,376.000000,,2013-02-07 00:21:00,
2013-02-06 16:31:00,75.0,34.0,-100.00,North,350,7.0,13.0,22,0.00,,,0.00,376.000000,,2013-02-07 00:31:00,
2013-02-06 16:41:00,75.0,34.0,-100.00,North,350,7.0,13.0,22,0.00,,,0.00,376.000000,,2013-02-07 00:41:00,
2013-02-06 17:11:00,74.0,33.0,-100.00,NNE,22,5.0,12.0,22,0.00,,,0.00,159.000000,,2013-02-07 01:11:00,
2013-02-06 17:21:00,74.0,33.0,-100.00,NNE,22,5.0,12.0,22,0.00,,,0.00,159.000000,,2013-02-07 01:21:00,
2013-02-06 17:31:00,74.0,33.0,-100.00,NNE,22,5.0,12.0,22,0.00,,,0.00,159.000000,,2013-02-07 01:31:00,
2013-02-06 17:41:00,74.0,33.0,-100.00,NNE,22,5.0,12.0,22,0.00,,,0.00,159.000000,,2013-02-07 01:41:00,
2013-02-06 18:11:00,64.0,35.0,-100.00,ESE,107,3.0,6.0,34,0.00,,,0.00,11.000000,,2013-02-07 02:11:00,
2013-02-06 18:21:00,64.0,35.0,-100.00,ESE,107,3.0,6.0,34,0.00,,,0.00,11.000000,,2013-02-07 02:21:00,
2013-02-06 18:31:00,64.0,35.0,-100.00,ESE,107,3.0,6.0,34,0.00,,,0.00,11.000000,,2013-02-07 02:31:00,
2013-02-06 18:41:00,64.0,35.0,-100.00,ESE,107,3.0,6.0,34,0.00,,,0.00,11.000000,,2013-02-07 02:41:00,
2013-02-06 19:11:00,58.0,35.0,-100.00,WSW,240,4.0,6.0,42,0.00,,,0.00,0.000000,,2013-02-07 03:11:00,
2013-02-06 19:21:00,58.0,35.0,-100.00,WSW,240,4.0,6.0,42,0.00,,,0.00,0.000000,,2013-02-07 03:21:00,
2013-02-06 20:11:00,53.0,36.0,-100.00,West,272,4.0,5.0,52,0.00,,,0.00,0.000000,,2013-02-07 04:11:00,
2013-02-06 20:22:00,53.0,36.0,-100.00,West,272,4.0,5.0,52,0.00,,,0.00,0.000000,,2013-02-07 04:22:00,
2013-02-06 21:11:00,52.0,36.0,-100.00,ESE,123,4.0,6.0,55,-99.99,,,0.00,0.000000,,2013-02-07 05:11:00,
2013-02-06 21:21:00,52.0,36.0,-100.00,ESE,123,4.0,6.0,55,-99.99,,,0.00,0.000000,,2013-02-07 05:21:00,
2013-02-06 22:11:00,54.0,34.0,-100.00,SSE,150,4.0,6.0,47,0.00,,,0.00,0.000000,,2013-02-07 06:11:00,
2013-02-06 22:22:00,54.0,34.0,-100.00,SSE,150,4.0,6.0,47,0.00,,,0.00,0.000000,,2013-02-07 06:22:00,
2013-02-06 22:31:00,54.0,34.0,-100.00,SSE,150,4.0,6.0,47,0.00,,,0.00,0.000000,,2013-02-07 06:31:00,
2013-02-06 22:43:00,54.0,34.0,-100.00,SSE,150,4.0,6.0,47,0.00,,,0.00,0.000000,,2013-02-07 06:43:00,
2013-02-06 23:11:00,46.0,35.0,-100.00,South,176,2.0,5.0,64,0.00,,,0.00,0.000000,,2013-02-07 07:11:00,
2013-02-06 23:21:00,46.0,35.0,-100.00,South,176,2.0,5.0,64,0.00,,,0.00,0.000000,,2013-02-07 07:21:00,